Weather History for Cheboygan, MI

Change the Weather History Date:

Thursday, March 7, 2013

  Actual Average (KPLN) Record (KPLN)
Temperature  
Mean Temperature 25 °F -  
Max Temperature 30 °F 32 °F 60 °F (1983)
Min Temperature 20 °F 11 °F -20 °F (1967)
Degree Days  
Heating Degree Days 40    
Moisture  
Dew Point 20 °F    
Average Humidity 79    
Maximum Humidity 93    
Minimum Humidity 68    
Precipitation  
Precipitation 0.00 in - - ()
Sea Level Pressure  
Sea Level Pressure 30.33 in    
Wind  
Wind Speed 9 mph (WNW)    
Max Wind Speed 15 mph    
Max Gust Speed 20 mph    
Visibility 10 miles    
Events Snow    
Averages and records for this station are not official NWS values.
T = Trace of Precipitation, MM = Missing Value Source: NWS Daily Summary

Daily Weather History Graph

Daily Weather History Graph

Search for Another Location

Airport:

Trip Planner

Search our weather history database for the weather conditions in past years. The results will help you decide how hot, cold, wet, or windy it might be!

Date:

Astronomy

Mar. 07, 2013 Rise Set
Actual Time 7:05 AM EST 6:33 PM EST
Civil Twilight 6:35 AM EST 7:03 PM EST
Nautical Twilight 6:01 AM EST 7:37 PM EST
Astronomical Twilight 5:26 AM EST 8:12 PM EST
Moon 4:15 AM EST (3/7) 2:10 PM EST (3/7)
Length of Visible Light 12h 27m
Length of Day
11h 28m
Waning Crescent, 20% of the Moon is Illuminated
Mar 7
Waning Crescent
Mar 11
New
Mar 19
First Quarter
Mar 27
Full
Apr 3
Last Quarter

Hourly Weather History & Observations

Time (EST) Temp. Windchill Dew Point Humidity Pressure Visibility Wind Dir Wind Speed Gust Speed Precip Events Conditions
12:15 AM 27.7 °F 18.2 °F 24.6 °F 88% 30.23 in 7.0 mi NW 10.4 mph - N/A Snow Light Snow
12:35 AM 27.3 °F 16.1 °F 24.1 °F 88% 30.24 in 10.0 mi NW 13.8 mph - N/A Snow Light Snow
12:54 AM 26.6 °F 16.8 °F 23.5 °F 88% 30.24 in 5.0 mi NW 10.4 mph - N/A Snow Light Snow
1:15 AM 26.1 °F 15.0 °F 22.5 °F 86% 30.24 in 10.0 mi NW 12.7 mph - N/A   Overcast
1:35 AM 25.7 °F 13.5 °F 22.1 °F 86% 30.25 in 10.0 mi NW 15.0 mph 19.6 mph N/A   Overcast
1:55 AM 25.7 °F 15.7 °F 22.1 °F 86% 30.25 in 10.0 mi WNW 10.4 mph - N/A   Overcast
2:15 AM 25.3 °F 15.3 °F 21.9 °F 87% 30.26 in 10.0 mi WNW 10.4 mph - N/A   Overcast
2:35 AM 25.2 °F 15.1 °F 21.4 °F 86% 30.26 in 10.0 mi WNW 10.4 mph - N/A   Overcast
2:55 AM 24.8 °F 15.3 °F 21.2 °F 86% 30.26 in 10.0 mi WNW 9.2 mph - N/A   Overcast
3:15 AM 24.8 °F 15.3 °F 21.0 °F 86% 30.26 in 10.0 mi WNW 9.2 mph - N/A   Overcast
3:35 AM 24.6 °F 14.4 °F 21.0 °F 86% 30.26 in 10.0 mi WNW 10.4 mph - N/A   Overcast
3:55 AM 24.6 °F 15.1 °F 21.0 °F 86% 30.28 in 10.0 mi WNW 9.2 mph - N/A   Overcast
4:15 AM 24.4 °F 16.5 °F 20.3 °F 84% 30.28 in 10.0 mi WNW 6.9 mph - N/A   Overcast
4:34 AM 24.3 °F 15.4 °F 20.1 °F 84% 30.28 in 10.0 mi WNW 8.1 mph - N/A   Overcast
4:55 AM 23.9 °F 15.0 °F 20.1 °F 85% 30.28 in 10.0 mi WNW 8.1 mph - N/A   Overcast
5:15 AM 23.9 °F 14.2 °F 19.9 °F 85% 30.27 in 10.0 mi West 9.2 mph - N/A   Overcast
5:35 AM 23.0 °F 13.9 °F 19.4 °F 86% 30.28 in 10.0 mi WNW 8.1 mph - N/A   Overcast
5:55 AM 23.0 °F 14.7 °F 19.4 °F 86% 30.28 in 10.0 mi West 6.9 mph - N/A   Overcast
6:15 AM 23.0 °F 15.8 °F 19.2 °F 85% 30.29 in 10.0 mi West 5.8 mph - N/A   Overcast
6:35 AM 22.8 °F 15.5 °F 19.4 °F 87% 30.29 in 10.0 mi West 5.8 mph - N/A   Overcast
6:55 AM 23.4 °F 17.4 °F 19.4 °F 85% 30.30 in 10.0 mi West 4.6 mph - N/A   Overcast
7:15 AM 23.7 °F 15.6 °F 19.8 °F 85% 30.30 in 10.0 mi West 6.9 mph - N/A   Overcast
7:35 AM 23.9 °F 16.8 °F 19.4 °F 83% 30.31 in 10.0 mi West 5.8 mph - N/A   Overcast
7:55 AM 24.3 °F 16.3 °F 19.4 °F 82% 30.32 in 10.0 mi WNW 6.9 mph - N/A   Overcast
8:15 AM 24.3 °F 14.6 °F 19.0 °F 80% 30.33 in 10.0 mi West 9.2 mph - N/A   Overcast
8:35 AM 24.4 °F 14.2 °F 18.7 °F 79% 30.33 in 10.0 mi West 10.4 mph - N/A   Overcast
8:55 AM 24.8 °F 15.3 °F 18.5 °F 77% 30.33 in 10.0 mi West 9.2 mph - N/A   Overcast
9:14 AM 25.3 °F 16.0 °F 18.7 °F 76% 30.34 in 10.0 mi WNW 9.2 mph - N/A   Overcast
9:35 AM 25.3 °F 15.3 °F 18.3 °F 75% 30.34 in 10.0 mi WNW 10.4 mph - N/A   Overcast
9:55 AM 25.5 °F 14.9 °F 18.5 °F 75% 30.34 in 10.0 mi West 11.5 mph - N/A   Overcast
10:15 AM 25.5 °F 15.5 °F 19.0 °F 76% 30.34 in 10.0 mi WNW 10.4 mph - N/A   Overcast
10:35 AM 25.7 °F 14.6 °F 19.4 °F 77% 30.34 in 10.0 mi West 12.7 mph - N/A   Overcast
10:55 AM 25.3 °F 14.7 °F 19.6 °F 79% 30.35 in 10.0 mi WNW 11.5 mph - N/A   Overcast
11:15 AM 25.7 °F 17.1 °F 19.8 °F 78% 30.35 in 10.0 mi WNW 8.1 mph - N/A   Overcast
11:35 AM 26.4 °F 16.6 °F 20.1 °F 77% 30.35 in 10.0 mi West 10.4 mph - N/A   Overcast
11:55 AM 27.0 °F 16.7 °F 20.1 °F 75% 30.35 in 10.0 mi WNW 11.5 mph - N/A   Overcast
12:15 PM 27.5 °F 18.0 °F 20.3 °F 74% 30.35 in 10.0 mi WNW 10.4 mph - N/A   Overcast
12:35 PM 27.9 °F 18.4 °F 20.5 °F 74% 30.35 in 10.0 mi WNW 10.4 mph - N/A   Overcast
12:55 PM 28.2 °F 20.2 °F 20.7 °F 73% 30.35 in 10.0 mi West 8.1 mph - N/A   Overcast
1:15 PM 28.9 °F 23.9 °F 20.3 °F 70% 30.35 in 10.0 mi NW 4.6 mph - N/A   Overcast
1:35 PM 28.8 °F 20.9 °F 20.5 °F 71% 30.35 in 10.0 mi NNW 8.1 mph - N/A   Overcast
1:55 PM 29.1 °F 22.1 °F 20.5 °F 70% 30.35 in 10.0 mi WNW 6.9 mph - N/A   Overcast
2:15 PM 29.8 °F 23.9 °F 20.8 °F 69% 30.35 in 10.0 mi WNW 5.8 mph - N/A   Overcast
2:35 PM 30.0 °F 22.4 °F 21.0 °F 69% 30.34 in 10.0 mi WNW 8.1 mph - N/A   Overcast
2:54 PM 30.2 °F 22.6 °F 21.2 °F 69% 30.35 in 10.0 mi North 8.1 mph - N/A   Overcast
3:15 PM 30.2 °F 23.4 °F 21.2 °F 69% 30.35 in 10.0 mi NW 6.9 mph - N/A   Overcast
3:35 PM 30.2 °F 22.6 °F 20.8 °F 68% 30.36 in 10.0 mi West 8.1 mph - N/A   Overcast
3:55 PM 29.8 °F 23.0 °F 21.0 °F 70% 30.36 in 10.0 mi WNW 6.9 mph - N/A   Overcast
4:15 PM 29.8 °F 22.2 °F 21.0 °F 70% 30.36 in 10.0 mi WNW 8.1 mph - N/A   Overcast
4:35 PM 29.8 °F 21.5 °F 21.0 °F 70% 30.36 in 10.0 mi WNW 9.2 mph - N/A   Overcast
4:55 PM 29.3 °F 21.5 °F 20.8 °F 71% 30.37 in 10.0 mi WNW 8.1 mph - N/A   Overcast
5:15 PM 29.5 °F 21.1 °F 21.0 °F 71% 30.37 in 10.0 mi West 9.2 mph - N/A   Overcast
5:35 PM 29.3 °F 21.5 °F 21.0 °F 71% 30.38 in 10.0 mi WNW 8.1 mph - N/A   Overcast
5:55 PM 29.3 °F 20.8 °F 20.8 °F 71% 30.38 in 10.0 mi West 9.2 mph - N/A   Overcast
6:15 PM 28.9 °F 21.1 °F 20.8 °F 72% 30.39 in 10.0 mi West 8.1 mph - N/A   Overcast
6:35 PM 28.9 °F 21.9 °F 20.7 °F 71% 30.39 in 10.0 mi West 6.9 mph - N/A   Overcast
6:55 PM 28.9 °F 23.9 °F 20.8 °F 72% 30.39 in 10.0 mi West 4.6 mph - N/A   Overcast
8:35 PM 28.4 °F 24.6 °F 20.8 °F 73% 30.41 in 10.0 mi West 3.5 mph - N/A   Overcast
8:55 PM 27.7 °F 22.4 °F 20.5 °F 74% 30.41 in 10.0 mi WSW 4.6 mph - N/A   Overcast
9:15 PM 26.6 °F 21.2 °F 20.3 °F 77% 30.41 in 10.0 mi West 4.6 mph - N/A   Scattered Clouds
9:35 PM 25.7 °F - 20.1 °F 79% 30.41 in 10.0 mi Calm Calm - N/A   Clear
9:55 PM 25.2 °F - 20.1 °F 81% 30.41 in 10.0 mi Calm Calm - N/A   Clear
10:15 PM 24.1 °F - 19.6 °F 83% 30.41 in 10.0 mi Calm Calm - N/A   Clear
10:35 PM 22.5 °F 16.3 °F 18.9 °F 86% 30.41 in 10.0 mi WSW 4.6 mph - N/A   Clear
10:55 PM 20.5 °F 15.6 °F 17.6 °F 89% 30.42 in 10.0 mi West 3.5 mph - N/A   Clear
11:15 PM 21.4 °F - 18.5 °F 89% 30.42 in 10.0 mi Calm Calm - N/A   Clear
11:35 PM 20.5 °F - 18.7 °F 93% 30.42 in 10.0 mi Calm Calm - N/A   Clear
11:55 PM 21.9 °F 17.2 °F 20.1 °F 93% 30.42 in 10.0 mi West 3.5 mph - N/A   Mostly Cloudy